Time,TemperatureF,DewpointF,PressureIn,WindDirection,WindDirectionDegrees,WindSpeedMPH,WindSpeedGustMPH,Humidity,HourlyPrecipIn,Conditions,Clouds,dailyrainin,SoftwareType,DateUTC
2013-01-30 17:01:00,57.9,56.5,29.60,SW,232,3.0,4.0,95,0.97,,,2.51,Wunderground v.1.15,2013-01-30 22:01:00,
2013-01-30 17:11:00,57.4,56.3,29.59,SE,145,1.0,7.0,96,0.22,,,2.55,Wunderground v.1.15,2013-01-30 22:11:00,
2013-01-30 17:16:00,57.3,56.2,29.57,ESE,116,1.0,7.0,96,0.15,,,2.57,Wunderground v.1.15,2013-01-30 22:16:00,
2013-01-30 17:21:00,57.3,56.2,29.57,SW,230,1.0,7.0,96,0.17,,,2.59,Wunderground v.1.15,2013-01-30 22:21:00,
2013-01-30 17:26:00,57.1,56.0,29.58,SSE,158,1.0,7.0,96,0.17,,,2.60,Wunderground v.1.15,2013-01-30 22:26:00,
2013-01-30 17:31:00,57.1,56.0,29.58,West,271,0.0,7.0,96,0.24,,,2.62,Wunderground v.1.15,2013-01-30 22:31:00,
2013-01-30 17:41:00,57.0,55.9,29.58,WSW,250,0.0,7.0,96,0.26,,,2.66,Wunderground v.1.15,2013-01-30 22:41:00,
2013-01-30 17:46:00,56.9,55.8,29.58,ESE,112,1.0,7.0,96,0.38,,,2.69,Wunderground v.1.15,2013-01-30 22:46:00,
2013-01-30 17:51:00,56.9,55.8,29.58,SSE,149,1.0,1.0,96,0.26,,,2.71,Wunderground v.1.15,2013-01-30 22:51:00,
2013-01-30 17:56:00,56.8,55.7,29.57,SSE,159,1.0,7.0,96,0.17,,,2.73,Wunderground v.1.15,2013-01-30 22:56:00,
2013-01-30 18:01:00,56.8,55.7,29.58,ESE,120,0.0,7.0,96,0.19,,,2.74,Wunderground v.1.15,2013-01-30 23:01:00,
2013-01-30 18:06:00,56.7,55.6,29.56,SE,133,0.0,7.0,96,0.22,,,2.76,Wunderground v.1.15,2013-01-30 23:06:00,
2013-01-30 18:16:00,56.6,55.5,29.56,SE,134,0.0,7.0,96,0.15,,,2.79,Wunderground v.1.15,2013-01-30 23:16:00,
2013-01-30 18:21:00,56.6,55.5,29.57,SW,222,0.0,7.0,96,0.12,,,2.80,Wunderground v.1.15,2013-01-30 23:21:00,
2013-01-30 18:26:00,56.5,55.7,29.58,South,170,0.0,7.0,97,0.10,,,2.81,Wunderground v.1.15,2013-01-30 23:26:00,
2013-01-30 18:31:00,56.5,55.4,29.58,SSW,211,0.0,7.0,96,0.11,,,2.81,Wunderground v.1.15,2013-01-30 23:31:00,
2013-01-30 18:36:00,56.4,55.6,29.58,ESE,110,0.0,7.0,97,0.21,,,2.83,Wunderground v.1.15,2013-01-30 23:36:00,
2013-01-30 18:46:00,56.2,55.4,29.56,SW,228,1.0,7.0,97,0.15,,,2.86,Wunderground v.1.15,2013-01-30 23:46:00,
2013-01-30 18:51:00,56.1,55.0,29.56,SW,225,0.0,7.0,96,0.07,,,2.86,Wunderground v.1.15,2013-01-30 23:51:00,
2013-01-30 18:56:00,56.0,54.9,29.56,NW,319,0.0,7.0,96,0.06,,,2.87,Wunderground v.1.15,2013-01-30 23:56:00,
2013-01-30 19:01:00,55.9,54.8,29.57,SSW,193,0.0,7.0,96,0.06,,,2.87,Wunderground v.1.15,2013-01-31 00:01:00,
2013-01-30 19:06:00,55.8,54.7,29.56,SW,219,0.0,7.0,96,0.05,,,2.88,Wunderground v.1.15,2013-01-31 00:06:00,
2013-01-30 19:11:00,55.8,54.7,29.57,NE,54,0.0,7.0,96,0.08,,,2.89,Wunderground v.1.15,2013-01-31 00:11:00,
2013-01-30 19:16:00,55.7,54.6,29.55,SE,124,1.0,7.0,96,0.14,,,2.90,Wunderground v.1.15,2013-01-31 00:16:00,
2013-01-30 19:21:00,55.6,54.5,29.55,SSE,156,1.0,7.0,96,0.09,,,2.91,Wunderground v.1.15,2013-01-31 00:21:00,
2013-01-30 19:26:00,55.5,54.4,29.56,SW,219,1.0,7.0,96,0.09,,,2.91,Wunderground v.1.15,2013-01-31 00:26:00,
2013-01-30 19:31:00,55.3,54.2,29.56,South,172,1.0,1.0,96,0.10,,,2.92,Wunderground v.1.15,2013-01-31 00:31:00,
2013-01-30 19:36:00,55.2,54.1,29.56,SSE,156,0.0,7.0,96,0.06,,,2.92,Wunderground v.1.15,2013-01-31 00:36:00,
2013-01-30 19:41:00,55.1,54.0,29.57,South,184,0.0,7.0,96,0.05,,,2.93,Wunderground v.1.15,2013-01-31 00:41:00,
2013-01-30 19:51:00,54.7,53.6,29.57,ESE,118,1.0,1.0,96,0.05,,,2.93,Wunderground v.1.15,2013-01-31 00:51:00,
2013-01-30 19:56:00,54.4,53.3,29.60,SSW,205,1.0,4.0,96,0.00,,,2.93,Wunderground v.1.15,2013-01-31 00:56:00,
2013-01-30 20:01:00,54.0,52.6,29.59,West,279,1.0,7.0,95,0.00,,,2.93,Wunderground v.1.15,2013-01-31 01:01:00,
2013-01-30 20:06:00,53.4,51.4,29.59,SSE,161,2.0,7.0,93,0.00,,,2.93,Wunderground v.1.15,2013-01-31 01:06:00,
2013-01-30 20:11:00,52.7,50.4,29.60,SSE,156,2.0,7.0,92,0.00,,,2.93,Wunderground v.1.15,2013-01-31 01:11:00,
2013-01-30 20:21:00,51.0,47.9,29.58,SSW,207,2.0,2.0,89,0.00,,,2.94,Wunderground v.1.15,2013-01-31 01:21:00,
2013-01-30 20:26:00,50.2,47.1,29.60,SSE,165,2.0,7.0,89,0.00,,,2.94,Wunderground v.1.15,2013-01-31 01:26:00,
2013-01-30 20:31:00,49.5,46.4,29.60,SW,226,2.0,7.0,89,0.04,,,2.95,Wunderground v.1.15,2013-01-31 01:31:00,
2013-01-30 20:36:00,48.9,46.1,29.60,SSE,155,2.0,7.0,90,0.19,,,2.96,Wunderground v.1.15,2013-01-31 01:36:00,
2013-01-30 20:41:00,48.4,45.6,29.60,WNW,295,2.0,7.0,90,0.10,,,2.97,Wunderground v.1.15,2013-01-31 01:41:00,
2013-01-30 20:46:00,47.9,45.4,29.60,SSE,166,1.0,7.0,91,0.13,,,2.98,Wunderground v.1.15,2013-01-31 01:46:00,
2013-01-30 20:56:00,47.2,44.4,29.60,SW,228,1.0,7.0,90,0.07,,,2.99,Wunderground v.1.15,2013-01-31 01:56:00,
2013-01-30 21:01:00,46.9,44.1,29.60,SSW,193,1.0,7.0,90,0.04,,,2.99,Wunderground v.1.15,2013-01-31 02:01:00,
2013-01-30 21:06:00,46.7,43.9,29.58,SSE,150,1.0,7.0,90,0.04,,,3.00,Wunderground v.1.15,2013-01-31 02:06:00,
2013-01-30 21:11:00,46.5,43.7,29.59,ESE,121,2.0,7.0,90,0.04,,,3.00,Wunderground v.1.15,2013-01-31 02:11:00,
2013-01-30 21:16:00,46.3,43.2,29.57,SW,226,2.0,7.0,89,0.04,,,3.00,Wunderground v.1.15,2013-01-31 02:16:00,
2013-01-30 21:26:00,45.7,42.9,29.59,ESE,121,2.0,7.0,90,0.04,,,3.01,Wunderground v.1.15,2013-01-31 02:26:00,
2013-01-30 21:31:00,45.3,42.5,29.57,SW,219,2.0,2.0,90,0.06,,,3.02,Wunderground v.1.15,2013-01-31 02:31:00,
2013-01-30 21:36:00,45.1,42.6,29.57,SSE,151,2.0,7.0,91,0.06,,,3.02,Wunderground v.1.15,2013-01-31 02:36:00,
2013-01-30 21:41:00,44.8,42.3,29.58,WSW,255,1.0,1.0,91,0.10,,,3.03,Wunderground v.1.15,2013-01-31 02:41:00,
2013-01-30 21:46:00,44.7,41.9,29.59,SSW,197,1.0,4.0,90,0.06,,,3.03,Wunderground v.1.15,2013-01-31 02:46:00,
2013-01-30 21:51:00,44.7,41.9,29.59,SW,229,2.0,7.0,90,0.04,,,3.03,Wunderground v.1.15,2013-01-31 02:51:00,
2013-01-30 22:01:00,44.6,41.3,29.59,East,84,2.0,2.0,88,0.00,,,3.03,Wunderground v.1.15,2013-01-31 03:01:00,
2013-01-30 22:06:00,44.5,41.2,29.60,SSW,205,1.0,7.0,88,0.00,,,3.03,Wunderground v.1.15,2013-01-31 03:06:00,
2013-01-30 22:11:00,44.5,40.9,29.59,SW,221,2.0,7.0,87,0.00,,,3.03,Wunderground v.1.15,2013-01-31 03:11:00,
2013-01-30 22:16:00,44.4,41.1,29.57,NNE,25,2.0,7.0,88,0.00,,,3.03,Wunderground v.1.15,2013-01-31 03:16:00,
2013-01-30 22:21:00,44.3,40.1,29.58,SSE,149,2.0,7.0,85,0.00,,,3.03,Wunderground v.1.15,2013-01-31 03:21:00,
2013-01-30 22:31:00,44.1,39.9,29.59,SSW,199,3.0,7.0,85,0.00,,,3.03,Wunderground v.1.15,2013-01-31 03:31:00,
2013-01-30 22:36:00,44.1,39.9,29.61,SSW,198,3.0,7.0,85,0.00,,,3.03,Wunderground v.1.15,2013-01-31 03:36:00,
2013-01-30 22:41:00,44.0,40.1,29.60,SSE,158,2.0,7.0,86,0.00,,,3.03,Wunderground v.1.15,2013-01-31 03:41:00,
2013-01-30 22:46:00,43.9,40.3,29.60,SW,219,1.0,7.0,87,0.00,,,3.03,Wunderground v.1.15,2013-01-31 03:46:00,
2013-01-30 22:51:00,43.7,40.1,29.62,South,172,1.0,7.0,87,0.00,,,3.03,Wunderground v.1.15,2013-01-31 03:51:00,
2013-01-30 22:56:00,43.8,40.2,29.62,SE,126,2.0,7.0,87,0.00,,,3.03,Wunderground v.1.15,2013-01-31 03:56:00,
2013-01-30 23:01:00,43.7,40.1,29.59,SW,219,2.0,2.0,87,0.00,,,3.03,Wunderground v.1.15,2013-01-31 04:01:00,
2013-01-30 23:06:00,43.7,40.4,29.60,SE,127,1.0,7.0,88,0.00,,,3.03,Wunderground v.1.15,2013-01-31 04:06:00,
2013-01-30 23:11:00,43.8,39.9,29.61,WSW,242,2.0,7.0,86,0.00,,,3.03,Wunderground v.1.15,2013-01-31 04:11:00,
2013-01-30 23:16:00,43.8,40.2,29.61,SSE,167,2.0,7.0,87,0.00,,,3.03,Wunderground v.1.15,2013-01-31 04:16:00,
2013-01-30 23:21:00,43.7,40.1,29.61,SSE,167,2.0,2.0,87,0.00,,,3.03,Wunderground v.1.15,2013-01-31 04:21:00,
2013-01-30 23:31:00,43.3,39.7,29.61,SSW,193,1.0,7.0,87,0.00,,,3.03,Wunderground v.1.15,2013-01-31 04:31:00,
2013-01-30 23:36:00,43.2,39.6,29.61,SW,233,2.0,7.0,87,0.00,,,3.03,Wunderground v.1.15,2013-01-31 04:36:00,
2013-01-30 23:41:00,43.1,39.5,29.61,East,100,2.0,2.0,87,0.00,,,3.03,Wunderground v.1.15,2013-01-31 04:41:00,
2013-01-30 23:46:00,43.0,39.1,29.62,WSW,252,1.0,7.0,86,0.00,,,3.03,Wunderground v.1.15,2013-01-31 04:46:00,
2013-01-30 23:51:00,42.9,39.0,29.62,SSE,150,1.0,7.0,86,0.00,,,3.03,Wunderground v.1.15,2013-01-31 04:51:00,
2013-01-30 23:56:00,42.9,39.0,29.63,SSE,160,2.0,7.0,86,0.00,,,3.03,Wunderground v.1.15,2013-01-31 04:56:00,